Home   Weather   New City   Past weeks
Flag for USA

Past Weather in New City, New York, USA — Yesterday and Last 2 Weeks

Now
50 °F

Overcast.


Feels Like: 44 °F
Forecast: 54 / 48 °F
Wind: 17 mph from West

Location: Westchester County Airport

Current Time: Oct 17, 2019 at 6:26:35 am

Latest Report: Oct 17, 2019 at 5:56 am


Visibility: 10 mi

Pressure: 29.21 "Hg

Humidity: 66%

Dew Point: 39 °F

Location of New CityLocation

Past Weather in New City — Graph

°F

New City Temperature Yesterday

Maximum temperature yesterday: 63 °F (at 2:56 pm)
Minimum temperature yesterday: 45 °F (at 4:56 am)
Average temperature yesterday: 56 °F

High & Low Weather Summary for the Past Weeks

 TemperatureHumidityPressure
High89 °F (Oct 2, 1:56 pm)100% (Oct 3, 9:56 pm)30.47 "Hg (Oct 3, 9:56 pm)
Low38 °F (Oct 5, 5:56 am)22% (Oct 5, 3:56 pm)29.09 "Hg (Oct 16, 10:56 pm)
Average57 °F72%30.08 "Hg
* Reported Oct 2 4:56 am — Oct 17 4:56 am, New City. Weather by CustomWeather, © 2019

Note: Actual official high and low records may vary slightly from our data, if they occured in-between our weather recording intervals... More about our weather records

Advertising

New City Weather History for the Previous 24 Hours

Scroll right to see more
 ConditionsComfort  
Time TempWeatherWind HumidityBarometerVisibility
4:56 am
Thu, Oct 17
50 °FPassing clouds.14 mph68%29.21 "Hg10 mi
4:21 am51 °FPassing clouds.17 mph69%29.21 "Hg10 mi
3:56 am50 °FOvercast.20 mph74%29.21 "Hg10 mi
2:56 am49 °FPassing clouds.17 mph77%29.19 "Hg10 mi
1:56 am50 °FPassing clouds.22 mph80%29.18 "Hg10 mi
12:56 am51 °FPassing clouds.26 mph83%29.17 "Hg10 mi
11:56 pm
Wed, Oct 16
53 °FRain. Fog.36 mph93%29.14 "Hg3 mi
10:56 pm61 °FRain. Fog.5 mph97%29.09 "Hg1 mi
9:56 pm61 °FRain. Fog.20 mph97%29.14 "Hg1 mi
8:56 pm60 °FLight rain. Fog.21 mph96%29.22 "Hg6 mi
7:56 pm59 °FRain. Fog.21 mph96%29.35 "Hg2 mi
6:56 pm60 °FRain. Fog.17 mph93%29.45 "Hg2 mi
5:56 pm60 °FLight rain. Fog.9 mph93%29.52 "Hg2 mi
4:56 pm59 °FLight rain. Fog.10 mph96%29.59 "Hg1 mi
3:56 pm60 °FRain. Fog.14 mph93%29.66 "Hg1 mi
3:12 pm62 °FLight rain. Fog.18 mph83%29.70 "Hg2 mi
2:56 pm63 °FMostly cloudy.16 mph78%29.69 "Hg10 mi
1:56 pm62 °FMostly cloudy.16 mph80%29.73 "Hg10 mi
12:56 pm62 °FMostly cloudy.14 mph78%29.80 "Hg10 mi
11:56 am61 °FPartly sunny.9 mph75%29.85 "Hg10 mi
10:56 am60 °FBroken clouds.14 mph72%29.88 "Hg10 mi
9:56 am57 °FPartly sunny.9 mph74%29.93 "Hg10 mi
8:56 am54 °FScattered clouds.6 mph80%29.95 "Hg10 mi
7:56 am51 °FPartly sunny.6 mph83%29.97 "Hg10 mi
6:56 am50 °FPassing clouds.6 mph83%30.00 "Hg10 mi
Weather by CustomWeather, © 2019

See weather overview